| time (UTC) | temp C | wind direction | speed KPH | gust KPH | rain 1hr cm | rain 24hr cm | rain mn cm | humidity % | barometer mb |
| 20260508064555 | 11 | 0 | 0.0 | 0.0 | 0.00 | 2.31 | 0.00 | 97 | 1013.5 |
| 20260508063057 | 11 | 0 | 0.0 | 0.0 | 0.00 | 2.31 | 0.00 | 97 | 1013.6 |
| 20260508061602 | 11 | 0 | 0.0 | 0.0 | 0.00 | 2.31 | 0.00 | 96 | 1013.5 |
| 20260508060108 | 11 | 0 | 0.0 | 0.0 | 0.00 | 2.31 | 0.00 | 97 | 1013.6 |
| 20260508054637 | 11 | 0 | 0.0 | 0.0 | 0.00 | 2.84 | 0.00 | 96 | 1013.4 |
| 20260508053056 | 11 | 0 | 0.0 | 0.0 | 0.00 | 2.84 | 0.00 | 96 | 1013.4 |
| 20260508051554 | 12 | 0 | 0.0 | 0.0 | 0.00 | 2.84 | 0.00 | 96 | 1013.2 |
| 20260508050055 | 12 | 0 | 0.0 | 0.0 | 0.00 | 2.84 | 0.00 | 96 | 1013.3 |
| 20260508044553 | 12 | 0 | 0.0 | 0.0 | 0.00 | 2.84 | 0.00 | 96 | 1013.2 |
| 20260508043100 | 12 | 0 | 0.0 | 0.0 | 0.00 | 2.84 | 0.00 | 96 | 1013.2 |
| 20260508041554 | 12 | 0 | 0.0 | 0.0 | 0.00 | 2.84 | 0.00 | 96 | 1013.2 |
| 20260508040058 | 12 | 0 | 0.0 | 0.0 | 0.00 | 2.84 | 0.00 | 96 | 1013.1 |
| 20260508034554 | 12 | 0 | 0.0 | 3.2 | 0.00 | 2.84 | 2.84 | 96 | 1013.2 |
| 20260508033055 | 12 | 0 | 0.0 | 0.0 | 0.00 | 2.84 | 2.84 | 96 | 1012.8 |
| 20260508031559 | 12 | 0 | 0.0 | 0.0 | 0.00 | 2.84 | 2.84 | 96 | 1012.5 |
| 20260508030104 | 12 | 0 | 0.0 | 3.2 | 0.00 | 2.84 | 2.84 | 96 | 1012.6 |
| 20260508024604 | 12 | 0 | 0.0 | 0.0 | 0.00 | 2.84 | 2.84 | 96 | 1012.2 |
| 20260508023055 | 12 | 0 | 0.0 | 0.0 | 0.00 | 2.84 | 2.84 | 96 | 1012.2 |
| 20260508021556 | 12 | 0 | 0.0 | 0.0 | 0.00 | 2.84 | 2.84 | 95 | 1012.2 |
| 20260508020105 | 12 | 0 | 0.0 | 3.2 | 0.00 | 2.84 | 2.84 | 95 | 1011.9 |
| 20260508014557 | 12 | 0 | 0.0 | 0.0 | 0.00 | 2.84 | 2.84 | 95 | 1011.9 |
| 20260508013056 | 12 | 0 | 0.0 | 4.8 | 0.03 | 2.84 | 2.84 | 95 | 1012.0 |
| 20260508011559 | 12 | 24 | 0.0 | 4.8 | 0.03 | 2.84 | 2.84 | 95 | 1011.3 |
| 20260508010057 | 12 | 24 | 0.0 | 4.8 | 0.03 | 2.84 | 2.84 | 95 | 1011.0 |
| 20260508004556 | 12 | 24 | 1.6 | 4.8 | 0.03 | 2.84 | 2.84 | 94 | 1011.1 |
| 20260508003056 | 12 | 22 | 1.6 | 8.0 | 0.00 | 2.82 | 2.82 | 93 | 1011.0 |
| 20260508001551 | 12 | 342 | 1.6 | 6.4 | 0.00 | 2.82 | 2.82 | 93 | 1011.2 |
| 20260508000057 | 12 | 109 | 1.6 | 11.3 | 0.00 | 2.82 | 2.82 | 93 | 1010.0 |
| 20260507234559 | 12 | 346 | 1.6 | 6.4 | 0.00 | 2.82 | 2.82 | 93 | 1010.0 |
| 20260507233058 | 12 | 46 | 1.6 | 8.0 | 0.00 | 2.82 | 2.82 | 92 | 1010.0 |
| 20260507231555 | 12 | 5 | 3.2 | 11.3 | 0.00 | 2.82 | 2.82 | 92 | 1010.0 |
| 20260507230055 | 12 | 75 | 3.2 | 14.5 | 0.00 | 2.82 | 2.82 | 93 | 1009.9 |
| 20260507224556 | 12 | 63 | 4.8 | 14.5 | 0.00 | 2.82 | 2.82 | 93 | 1009.7 |
| 20260507223055 | 12 | 55 | 3.2 | 12.9 | 0.00 | 2.82 | 2.82 | 94 | 1009.5 |
| 20260507221556 | 12 | 62 | 3.2 | 12.9 | 0.00 | 2.82 | 2.82 | 95 | 1009.2 |
| 20260507220055 | 12 | 78 | 4.8 | 14.5 | 0.00 | 2.82 | 2.82 | 95 | 1009.5 |
| 20260507214555 | 12 | 355 | 4.8 | 20.9 | 0.00 | 2.82 | 2.82 | 95 | 1009.7 |
| 20260507213054 | 12 | 338 | 4.8 | 12.9 | 0.00 | 2.82 | 2.82 | 96 | 1009.2 |
| 20260507211556 | 13 | 54 | 6.4 | 12.9 | 0.00 | 2.82 | 2.82 | 96 | 1008.9 |
| 20260507204552 | 13 | 74 | 4.8 | 14.5 | 0.00 | 2.82 | 2.82 | 96 | 1008.6 |
| 20260507203058 | 14 | 73 | 3.2 | 14.5 | 0.03 | 2.82 | 2.82 | 96 | 1008.1 |
| 20260507201553 | 14 | 333 | 4.8 | 14.5 | 0.18 | 2.82 | 2.82 | 96 | 1008.4 |
| 20260507200052 | 14 | 337 | 3.2 | 19.3 | 0.20 | 2.82 | 2.82 | 95 | 1008.5 |
| 20260507194554 | 14 | 343 | 3.2 | 22.5 | 0.20 | 2.82 | 2.82 | 95 | 1008.6 |
| 20260507193053 | 15 | 58 | 4.8 | 30.6 | 0.18 | 2.79 | 2.79 | 94 | 1008.2 |
| 20260507191553 | 16 | 51 | 4.8 | 20.9 | 0.00 | 2.62 | 2.62 | 92 | 1007.9 |
| 20260507180100 | 21 | 229 | 1.6 | 6.4 | 0.03 | 2.62 | 2.62 | 97 | 1007.7 |
| 20260507174607 | 20 | 261 | 4.8 | 11.3 | 0.03 | 2.62 | 2.62 | 97 | 1008.1 |
| 20260507173053 | 20 | 254 | 1.6 | 12.9 | 0.03 | 2.62 | 2.62 | 98 | 1007.8 |
| 20260507171610 | 20 | 254 | 0.0 | 8.0 | 0.03 | 2.62 | 2.62 | 98 | 1007.6 |
| 20260507170057 | 20 | 232 | 1.6 | 6.4 | 0.00 | 2.59 | 2.59 | 98 | 1008.0 |
| 20260507164554 | 20 | 0 | 3.2 | 6.4 | 0.00 | 2.59 | 2.59 | 98 | 1008.4 |
| 20260507163053 | 20 | 281 | 1.6 | 8.0 | 0.03 | 2.59 | 2.59 | 98 | 1008.8 |
| 20260507161602 | 19 | 259 | 3.2 | 6.4 | 0.05 | 2.59 | 2.59 | 97 | 1009.2 |
| 20260507160059 | 19 | 233 | 3.2 | 6.4 | 0.08 | 2.59 | 2.59 | 97 | 1009.5 |
| 20260507154556 | 19 | 233 | 1.6 | 4.8 | 0.15 | 2.59 | 2.59 | 98 | 1008.8 |
| 20260507153107 | 19 | 236 | 1.6 | 4.8 | 0.25 | 2.57 | 2.57 | 97 | 1008.7 |
| 20260507151558 | 19 | 240 | 3.2 | 8.0 | 0.51 | 2.54 | 2.54 | 97 | 1008.7 |
| 20260507144556 | 18 | 257 | 4.8 | 16.1 | 0.58 | 2.44 | 2.44 | 97 | 1009.7 |
| 20260507143058 | 19 | 237 | 9.7 | 19.3 | 0.46 | 2.31 | 2.31 | 97 | 1009.6 |
| 20260507141552 | 19 | 244 | 4.8 | 14.5 | 0.18 | 2.03 | 2.03 | 97 | 1009.6 |
| 20260507140105 | 19 | 258 | 4.8 | 11.3 | 0.03 | 1.88 | 1.88 | 97 | 1009.7 |
| 20260507134555 | 19 | 242 | 3.2 | 8.0 | 0.00 | 1.85 | 1.85 | 98 | 1009.6 |
| 20260507133101 | 19 | 236 | 3.2 | 8.0 | 0.00 | 1.85 | 1.85 | 98 | 1009.6 |
| 20260507131556 | 19 | 232 | 3.2 | 6.4 | 0.00 | 1.85 | 1.85 | 98 | 1009.5 |
| 20260507130108 | 19 | 236 | 1.6 | 6.4 | 0.00 | 1.85 | 1.85 | 98 | 1009.4 |
| 20260507124634 | 19 | 236 | 3.2 | 11.3 | 0.00 | 1.85 | 1.85 | 98 | 1009.4 |
| 20260507123055 | 19 | 236 | 1.6 | 14.5 | 0.03 | 1.85 | 1.85 | 98 | 1009.7 |
| 20260507121554 | 19 | 217 | 3.2 | 8.0 | 0.03 | 1.85 | 1.85 | 98 | 1009.9 |
| 20260507120057 | 19 | 225 | 3.2 | 9.7 | 0.03 | 1.85 | 1.85 | 98 | 1010.0 |
| 20260507114609 | 18 | 225 | 3.2 | 8.0 | 0.03 | 1.85 | 1.85 | 98 | 1010.2 |
| 20260507113056 | 18 | 259 | 0.0 | 0.0 | 0.05 | 1.83 | 1.83 | 98 | 1010.4 |
| 20260507111555 | 18 | 0 | 0.0 | 0.0 | 0.08 | 1.83 | 1.83 | 97 | 1010.3 |
| 20260507110054 | 18 | 0 | 0.0 | 1.6 | 0.13 | 1.83 | 1.83 | 97 | 1010.4 |
| 20260507104558 | 18 | 0 | 0.0 | 4.8 | 0.15 | 1.83 | 1.83 | 98 | 1010.0 |
| 20260507103055 | 18 | 267 | 1.6 | 4.8 | 0.15 | 1.78 | 1.78 | 98 | 1010.2 |
| 20260507101559 | 18 | 267 | 1.6 | 4.8 | 0.15 | 1.75 | 1.75 | 97 | 1010.2 |
| 20260507100058 | 18 | 252 | 1.6 | 6.4 | 0.13 | 1.70 | 1.70 | 97 | 1009.9 |
| 20260507094553 | 18 | 249 | 1.6 | 6.4 | 0.10 | 1.68 | 1.68 | 97 | 1009.9 |
| 20260507093102 | 18 | 240 | 3.2 | 8.0 | 0.23 | 1.63 | 1.63 | 97 | 1010.0 |
| 20260507091559 | 18 | 257 | 3.2 | 12.9 | 0.38 | 1.60 | 1.60 | 97 | 1010.0 |
| 20260507090106 | 18 | 223 | 4.8 | 12.9 | 0.41 | 1.57 | 1.57 | 97 | 1009.7 |
| 20260507084555 | 18 | 244 | 0.0 | 11.3 | 0.46 | 1.57 | 1.57 | 97 | 1010.1 |
| 20260507083054 | 18 | 236 | 1.6 | 6.4 | 0.33 | 1.40 | 1.40 | 97 | 1010.5 |
| 20260507081555 | 18 | 223 | 0.0 | 9.7 | 0.18 | 1.22 | 1.22 | 97 | 1011.0 |
| 20260507080100 | 18 | 202 | 0.0 | 4.8 | 0.15 | 1.17 | 1.17 | 97 | 1010.6 |
| 20260507074610 | 18 | 0 | 0.0 | 4.8 | 0.10 | 1.12 | 1.12 | 97 | 1010.7 |
| 20260507073056 | 18 | 0 | 0.0 | 0.0 | 0.05 | 1.07 | 1.07 | 97 | 1010.8 |
| 20260507071557 | 18 | 0 | 0.0 | 0.0 | 0.03 | 1.04 | 1.04 | 97 | 1011.0 |
| 20260507070116 | 18 | 0 | 0.0 | 0.0 | 0.00 | 1.02 | 1.02 | 96 | 1011.5 |